• In Netherlands
  • List of Countries
  • For 7 days
  • Water Temperature
  • Satellite Maps
  • Weather Map
  • Weather Widgets
  • user-avatar
    Login

    Hourly Weather Klagenfurt

    Today, 24 August, Thursday

    Time Temperature Precipitation Wind Pressure Humidity
    00:00 +13°C° 0 mm 1 mps 692 mmHg 85%
    01:00 +13°C° 0 mm 1 mps 692 mmHg 85%
    02:00 +12°C° 0 mm 1 mps 692 mmHg 85%
    03:00 +12°C° 0 mm 1 mps 692 mmHg 85%
    04:00 +12°C° 0 mm 1 mps 692 mmHg 85%
    05:00 +13°C° 0 mm 1 mps 692 mmHg 81%
    06:00 +15°C° 0 mm 1 mps 693 mmHg 77%
    07:00 +16°C° 0 mm 1 mps 693 mmHg 73%
    08:00 +20°C° 0 mm 1 mps 694 mmHg 64%
    09:00 +23°C° 0 mm 1 mps 694 mmHg 55%
    10:00 +26°C° 0 mm 1 mps 695 mmHg 46%
    11:00 +27°C° 0 mm 1 mps 695 mmHg 44%
    12:00 +28°C° 0 mm 1 mps 695 mmHg 41%
    13:00 +29°C° 0 mm 2 mps 695 mmHg 39%
    14:00 +28°C° 0 mm 2 mps 695 mmHg 41%
    15:00 +28°C° 0 mm 2 mps 694 mmHg 44%
    16:00 +27°C° 0 mm 2 mps 694 mmHg 46%
    17:00 +24°C° 0.1 mm 1 mps 694 mmHg 57%
    18:00 +22°C° 0.1 mm 1 mps 693 mmHg 67%
    19:00 +19°C° 0.1 mm 1 mps 693 mmHg 78%
    20:00 +19°C° 0.1 mm 1 mps 693 mmHg 80%
    21:00 +18°C° 0.1 mm 1 mps 693 mmHg 82%
    22:00 +16°C° 0.1 mm 1 mps 693 mmHg 85%
    23:00 +16°C° 0 mm 1 mps 693 mmHg 85%

    Tomorrow, 25 August, Friday

    Time Temperature Precipitation Wind Pressure Humidity
    00:00 +15°C° 0 mm 1 mps 693 mmHg 86%
    01:00 +15°C° 0 mm 1 mps 693 mmHg 87%
    02:00 +15°C° 0 mm 1 mps 693 mmHg 87%
    03:00 +14°C° 0 mm 1 mps 693 mmHg 87%
    04:00 +14°C° 0 mm 1 mps 693 mmHg 87%
    05:00 +15°C° 0 mm 1 mps 693 mmHg 83%
    06:00 +16°C° 0 mm 1 mps 693 mmHg 80%
    07:00 +19°C° 0 mm 1 mps 694 mmHg 76%
    08:00 +21°C° 0 mm 1 mps 694 mmHg 66%
    09:00 +24°C° 0 mm 1 mps 695 mmHg 56%
    10:00 +27°C° 0 mm 1 mps 695 mmHg 47%
    11:00 +28°C° 0 mm 1 mps 695 mmHg 44%
    12:00 +29°C° 0 mm 1 mps 695 mmHg 42%
    13:00 +29°C° 0 mm 2 mps 695 mmHg 39%
    14:00 +29°C° 0 mm 2 mps 694 mmHg 41%
    15:00 +28°C° 0 mm 2 mps 694 mmHg 43%
    16:00 +28°C° 0 mm 2 mps 694 mmHg 45%
    17:00 +25°C° 0.1 mm 1 mps 694 mmHg 54%
    18:00 +23°C° 0.1 mm 1 mps 693 mmHg 64%
    19:00 +20°C° 0.1 mm 1 mps 693 mmHg 74%
    20:00 +20°C° 0.1 mm 1 mps 693 mmHg 77%
    21:00 +19°C° 0.1 mm 1 mps 693 mmHg 79%
    22:00 +18°C° 0.1 mm 1 mps 693 mmHg 82%
    23:00 +18°C° 0 mm 1 mps 693 mmHg 84%

    Day after tomorrow, 26 August, Saturday

    Time Temperature Precipitation Wind Pressure Humidity
    00:00 +16°C° 0 mm 1 mps 693 mmHg 85%
    01:00 +16°C° 0 mm 1 mps 693 mmHg 87%
    02:00 +16°C° 0 mm 1 mps 692 mmHg 87%
    03:00 +16°C° 0 mm 1 mps 692 mmHg 88%
    04:00 +15°C° 0 mm 1 mps 692 mmHg 88%
    05:00 +16°C° 0 mm 1 mps 692 mmHg 84%
    06:00 +19°C° 0 mm 1 mps 693 mmHg 80%
    07:00 +20°C° 0 mm 1 mps 693 mmHg 77%
    08:00 +21°C° 0 mm 0 mps 694 mmHg 66%
    09:00 +24°C° 0 mm 0 mps 694 mmHg 56%
    10:00 +27°C° 0 mm 0 mps 695 mmHg 45%
    11:00 +28°C° 0 mm 0 mps 695 mmHg 43%
    12:00 +31°C° 0 mm 1 mps 695 mmHg 40%
    13:00 +32°C° 0 mm 1 mps 695 mmHg 37%
    14:00 +31°C° 0 mm 1 mps 694 mmHg 39%
    15:00 +30°C° 0 mm 1 mps 694 mmHg 40%
    16:00 +30°C° 0 mm 1 mps 694 mmHg 42%
    17:00 +27°C° 0.4 mm 1 mps 693 mmHg 52%
    18:00 +25°C° 0.4 mm 1 mps 693 mmHg 61%
    19:00 +20°C° 0.4 mm 0 mps 692 mmHg 70%
    20:00 +19°C° 0.1 mm 0 mps 692 mmHg 72%
    21:00 +19°C° 0.1 mm 0 mps 693 mmHg 75%
    22:00 +20°C° 0.1 mm 1 mps 693 mmHg 77%
    23:00 +20°C° 0 mm 1 mps 692 mmHg 78%

    27 August, Sunday

    Time Temperature Precipitation Wind Pressure Humidity
    00:00 +19°C° 0 mm 1 mps 692 mmHg 78%
    01:00 +19°C° 0 mm 1 mps 692 mmHg 79%
    02:00 +18°C° 0 mm 1 mps 692 mmHg 79%
    03:00 +18°C° 0 mm 1 mps 692 mmHg 80%
    04:00 +18°C° 0 mm 1 mps 691 mmHg 80%
    05:00 +19°C° 0 mm 1 mps 692 mmHg 77%
    06:00 +20°C° 0 mm 1 mps 692 mmHg 74%
    07:00 +21°C° 0 mm 1 mps 692 mmHg 71%
    08:00 +24°C° 0 mm 1 mps 693 mmHg 61%
    09:00 +25°C° 0 mm 0 mps 694 mmHg 52%
    10:00 +28°C° 0 mm 0 mps 694 mmHg 43%
    11:00 +29°C° 0 mm 0 mps 694 mmHg 40%
    12:00 +32°C° 0 mm 1 mps 694 mmHg 37%
    13:00 +33°C° 0 mm 1 mps 694 mmHg 34%
    14:00 +32°C° 0 mm 1 mps 693 mmHg 36%
    15:00 +31°C° 0 mm 1 mps 693 mmHg 38%
    16:00 +31°C° 0 mm 1 mps 693 mmHg 39%
    17:00 +28°C° 0 mm 1 mps 692 mmHg 49%
    18:00 +23°C° 0 mm 0 mps 692 mmHg 58%
    19:00 +20°C° 0 mm 0 mps 691 mmHg 67%
    20:00 +20°C° 0.3 mm 0 mps 691 mmHg 69%
    21:00 +21°C° 0.3 mm 1 mps 691 mmHg 71%
    22:00 +21°C° 0.3 mm 1 mps 692 mmHg 74%
    23:00 +21°C° 0.1 mm 1 mps 691 mmHg 74%

    28 August, Monday

    Time Temperature Precipitation Wind Pressure Humidity
    00:00 +20°C° 0.1 mm 1 mps 691 mmHg 75%
    01:00 +20°C° 0.1 mm 1 mps 691 mmHg 76%
    02:00 +20°C° 0.1 mm 1 mps 691 mmHg 76%
    03:00 +19°C° 0.1 mm 1 mps 691 mmHg 76%
    04:00 +19°C° 0.1 mm 1 mps 691 mmHg 76%
    05:00 +20°C° 0.1 mm 1 mps 692 mmHg 76%
    06:00 +21°C° 0.1 mm 1 mps 692 mmHg 75%
    07:00 +21°C° 0.1 mm 1 mps 692 mmHg 75%
    08:00 +24°C° 0.1 mm 1 mps 693 mmHg 65%
    09:00 +26°C° 0.1 mm 1 mps 693 mmHg 55%
    10:00 +29°C° 0.1 mm 1 mps 694 mmHg 44%
    11:00 +30°C° 0 mm 1 mps 694 mmHg 41%
    12:00 +31°C° 0 mm 1 mps 694 mmHg 39%
    13:00 +32°C° 0 mm 1 mps 694 mmHg 36%
    14:00 +31°C° 0 mm 1 mps 694 mmHg 38%
    15:00 +30°C° 0 mm 1 mps 694 mmHg 40%
    16:00 +30°C° 0 mm 1 mps 693 mmHg 42%
    17:00 +27°C° 0 mm 1 mps 693 mmHg 49%
    18:00 +25°C° 0 mm 1 mps 693 mmHg 57%
    19:00 +23°C° 0 mm 1 mps 693 mmHg 64%
    20:00 +22°C° 0 mm 1 mps 693 mmHg 67%
    21:00 +21°C° 0 mm 1 mps 693 mmHg 70%
    22:00 +20°C° 0 mm 1 mps 693 mmHg 73%
    23:00 +20°C° 0 mm 1 mps 693 mmHg 75%

    29 August, Tuesday

    Time Temperature Precipitation Wind Pressure Humidity
    00:00 +19°C° 0 mm 1 mps 693 mmHg 77%
    01:00 +19°C° 0 mm 1 mps 693 mmHg 78%
    02:00 +18°C° 0 mm 1 mps 693 mmHg 79%
    03:00 +18°C° 0 mm 1 mps 693 mmHg 81%
    04:00 +18°C° 0 mm 1 mps 693 mmHg 82%
    05:00 +19°C° 0 mm 1 mps 693 mmHg 80%
    06:00 +19°C° 0 mm 1 mps 693 mmHg 77%
    07:00 +20°C° 0 mm 1 mps 694 mmHg 75%
    08:00 +22°C° 0 mm 1 mps 694 mmHg 67%
    09:00 +25°C° 0 mm 1 mps 694 mmHg 60%
    10:00 +27°C° 0 mm 1 mps 695 mmHg 52%
    11:00 +28°C° 0 mm 1 mps 695 mmHg 50%
    12:00 +29°C° 0 mm 1 mps 694 mmHg 47%
    13:00 +30°C° 0 mm 1 mps 694 mmHg 45%
    14:00 +29°C° 0 mm 1 mps 694 mmHg 46%
    15:00 +29°C° 0 mm 1 mps 694 mmHg 47%
    16:00 +29°C° 0 mm 1 mps 693 mmHg 48%
    17:00 +27°C° 0 mm 1 mps 693 mmHg 57%
    18:00 +24°C° 0 mm 1 mps 693 mmHg 66%
    19:00 +20°C° 0 mm 0 mps 692 mmHg 76%
    20:00 +19°C° 0 mm 0 mps 692 mmHg 78%
    21:00 +18°C° 0 mm 0 mps 692 mmHg 81%
    22:00 +18°C° 0 mm 0 mps 692 mmHg 83%
    23:00 +17°C° 0 mm 0 mps 692 mmHg 84%
    Show more